TEVEL2-7

Last updated on Thu Oct 30 2025 00:03:11 GMT+0000 (Coordinated Universal Time)

1 63238U 25052AE 25302.42907832 .00020362 00000+0 86701-3 0 9990 2 63238 97.4158 194.2111 0005236 229.2079 130.8704 15.22998806 34790
UTC large
Height (km)
Speed (km/s)
/
Latitude / Longitude
Inclination (degrees)
Orbital Period (minutes)
Azimuth
Elevation
Range (km)
Doppler Factor

Next 0 passes for location: London (51.5072 / 0.1276)

Sorry there are no passes over London.